[[{"header":{"parameterUnit":"m.s-1","parameterCategory":1,"la1":30.2991,"la2":30.254,"lo1":-89.0895,"lo2":-89.0444,"dy":0.0017,"dx":0.0017,"nx":28,"ny":28,"refTime":"2023-10-21T09:00:00:Z","depth":0,"parameterNumber":2,"parameterNumberName":"U-component_of_WINDS"},"data":[0,0,0,0,0,0,0,0,0,0,0,0,0,0,0,0,0,0,0,0,0,0,0,0,0,0,0,0,0,0,0,0,0,0,0,0,0,0,0,0,0,0,0,0,0,0,0,0,0,0,0,0,0,0,0,0,0,0,1.0299,1.0299,0,1.0375,1.0376,1.0377,1.039,1.0389,1.0388,1.0388,1.0465,1.0468,1.0471,0,0,0,0,0,0,0,0,0,0,0,0,0,1.0163,1.0165,1.0299,1.03,1.03,1.0375,1.0376,1.0377,1.039,1.0389,1.0388,1.0388,1.0464,1.0468,1.0471,0,0,0,0,0,0,0,0,0,0,0,0,0,1.0229,1.0166,1.0298,1.0316,1.0318,1.0375,1.0376,1.0377,1.039,1.0389,1.0388,1.0387,1.0463,1.0467,1.0471,1.0516,0,0,1.0483,1.0485,0,0,0,0,0,0,0,0,1.0225,1.0234,1.0312,1.0315,1.0317,1.0372,1.0357,1.0424,1.039,1.0363,1.0388,1.0387,1.0435,1.0441,1.0458,1.0519,1.0522,1.0484,1.0486,1.0488,1.0489,0,0,0,0,0,0,0,1.0221,1.0231,1.0329,1.0313,1.0317,1.032,1.0328,1.0369,1.0403,1.0365,1.0366,1.0375,1.0436,1.0454,1.046,1.0524,1.0484,1.0487,1.049,1.0491,1.0626,1.0627,0,0,0,0,0,0,1.0213,1.0227,1.0326,1.0331,1.0268,1.0323,1.0332,1.0355,1.0403,1.0409,1.0376,1.0375,1.0447,1.0455,1.0462,1.0517,1.0488,1.0492,1.0494,1.0624,1.0626,1.0627,0,0,0,0,0,0,1.021,1.0222,1.0323,1.0279,1.0292,1.0326,1.0352,1.0357,1.0375,1.0411,1.0417,1.0388,1.0447,1.0457,1.0502,1.052,1.0494,1.0497,1.0623,1.0625,1.0626,1.0628,0,0,0,0,0,0,1.0206,1.0221,1.0238,1.028,1.0295,1.0362,1.0353,1.036,1.0382,1.0382,1.0424,1.043,1.0447,1.0496,1.0506,1.0525,1.05,1.0622,1.0624,1.0626,1.0626,1.0629,1.0632,0,0,0,0,0,1.0201,1.0235,1.0239,1.025,1.0317,1.0363,1.0372,1.0391,1.0383,1.0401,1.0424,1.0428,1.0517,1.0501,1.0512,1.0533,1.0621,1.0623,1.0626,1.0625,1.0629,1.0632,0,0,0,0,0,0,1.0193,1.024,1.0245,1.0293,1.0324,1.0365,1.0388,1.0394,1.0428,1.0426,1.0449,1.0458,1.0502,1.0522,1.0504,1.0578,1.0568,1.0573,1.0563,1.0567,1.057,1.0564,1.0504,0,0,0,0,0,1.0198,1.0231,1.027,1.0309,1.0324,1.0353,1.0374,1.0387,1.0419,1.0432,1.0459,1.049,1.0525,1.0547,1.0581,1.0629,1.0639,1.0649,1.0652,1.0654,1.0658,1.0685,1.069,1.0636,1.0636,1.0636,0,0,1.0206,1.0236,1.0256,1.0308,1.0334,1.0368,1.0364,1.04,1.0426,1.0438,1.0482,1.0503,1.0539,1.0586,1.0608,1.0604,1.0675,1.0657,1.0659,1.0662,1.0688,1.0693,1.0698,1.0637,1.0637,1.0637,0,0,1.0239,1.0265,1.03,1.0326,1.0364,1.0384,1.0392,1.0432,1.0447,1.0492,1.0501,1.0532,1.0592,1.0617,1.0638,1.0682,1.0687,1.0692,1.0707,1.0733,1.0737,1.0741,1.0756,1.0761,1.0696,1.0696,1.0696,0,1.0244,1.0296,1.0317,1.0353,1.0376,1.0389,1.0425,1.0449,1.0496,1.0512,1.0506,1.0582,1.0607,1.066,1.0671,1.0688,1.0698,1.0687,1.0735,1.0739,1.0743,1.0758,1.0763,1.0697,1.0697,1.0696,1.0696,0,1.0301,1.0337,1.0361,1.0407,1.0433,1.0468,1.0495,1.0518,1.0529,1.0548,1.0594,1.0626,1.0666,1.068,1.069,1.0735,1.0731,1.073,1.072,1.0748,1.0762,1.0768,1.0697,1.0697,1.0697,1.0697,0,0,1.033,1.0388,1.0396,1.0417,1.0461,1.049,1.0526,1.0566,1.0586,1.0619,1.065,1.07,1.07,1.0724,1.0737,1.076,1.0792,1.0756,1.0758,1.0762,1.0843,1.0843,1.0849,1.0796,1.0798,1.0798,1.084,0,1.0367,1.0433,1.0453,1.0508,1.0542,1.0555,1.0587,1.0617,1.0637,1.0668,1.069,1.0725,1.0722,1.0736,1.076,1.0783,1.0809,1.0781,1.0825,1.0826,1.0815,1.0857,1.0857,1.0894,1.0846,1.0847,1.0847,0,1.042,1.0454,1.0512,1.0552,1.0567,1.0595,1.0634,1.0664,1.0699,1.0711,1.0738,1.075,1.0789,1.0778,1.0831,1.0811,1.0831,1.0845,1.0847,1.0851,1.0838,1.0862,1.0907,1.0912,1.0856,1.0856,1.0855,0,1.0434,1.0495,1.0538,1.0555,1.0603,1.0623,1.0644,1.0678,1.0701,1.0735,1.075,1.0788,1.0809,1.0838,1.086,1.0849,1.0911,1.0902,1.0923,1.0922,1.0934,1.0933,1.0982,1.0948,1.0948,1.0948,1.0947,0,1.0473,1.0508,1.0545,1.0571,1.0611,1.0634,1.0673,1.0694,1.0724,1.0755,1.0769,1.0797,1.0825,1.0857,1.0874,1.0916,1.0925,1.0936,1.094,1.0935,1.0933,1.0947,1.0945,1.0949,1.0949,1.0948,1.0948,0,1.0496,1.0522,1.0569,1.0611,1.0623,1.065,1.0686,1.0712,1.0733,1.0771,1.0782,1.0814,1.0852,1.0877,1.0926,1.0938,1.0983,1.0987,1.0972,1.0973,1.0993,1.099,1.1052,1.1062,1.1021,1.1022,1.1022,0,1.0519,1.0546,1.0592,1.0613,1.0634,1.0669,1.0693,1.0717,1.0741,1.0784,1.0805,1.0844,1.0877,1.0938,1.0966,1.1003,1.1008,1.1027,1.1013,1.1007,1.1007,1.1005,1.1008,1.1029,1.1029,1.1029,1.103,0,1.0557,1.0568,1.0602,1.0641,1.0669,1.0701,1.0732,1.0749,1.0779,1.0806,1.0846,1.0871,1.0922,1.0961,1.1001,1.1022,1.1031,1.1034,1.1041,1.1035,1.1024,1.103,1.0977,1.1032,1.1032,1.1032,1.1031,1.1031,1.058,1.0605,1.0641,1.0678,1.0705,1.0734,1.0761,1.0785,1.0819,1.0862,1.0874,1.0916,1.0951,1.1006,1.1028,1.1061,1.1059,1.1069,1.1071,1.1073,1.1073,1.102,1.1069,1.1069,1.1069,1.1069,1.1069,0,1.0618,1.0642,1.0676,1.072,1.075,1.0756,1.0792,1.0816,1.0852,1.0884,1.0917,1.0963,1.1001,1.1032,1.1072,1.1092,1.1097,1.1101,1.11,1.1104,1.1073,1.1063,1.1097,1.1097,1.1097,1.1097,1.1097,1.1097,1.0641,1.0684,1.07,1.0756,1.078,1.0821,1.084,1.0868,1.0893,1.0944,1.0976,1.0996,1.1028,1.107,1.1106,1.1114,1.1128,1.1131,1.114,1.111,1.1107,1.1104,1.1094,1.1134,1.1134,1.1169,1.1169,1.117]},{"header":{"parameterUnit":"m.s-1","parameterCategory":1,"la1":30.2991,"la2":30.254,"lo1":-89.0895,"lo2":-89.0444,"dy":0.0017,"dx":0.0017,"nx":28,"ny":28,"refTime":"2023-10-21T09:00:00:Z","depth":0,"parameterNumber":3,"parameterNumberName":"V-component_of_WINDS"},"data":[0,0,0,0,0,0,0,0,0,0,0,0,0,0,0,0,0,0,0,0,0,0,0,0,0,0,0,0,0,0,0,0,0,0,0,0,0,0,0,0,0,0,0,0,0,0,0,0,0,0,0,0,0,0,0,0,0,0,2.2607,2.2607,0,2.2643,2.2644,2.2644,2.2614,2.2613,2.2612,2.2611,2.2645,2.2647,2.2649,0,0,0,0,0,0,0,0,0,0,0,0,0,2.2509,2.2511,2.2607,2.2607,2.2608,2.2643,2.2644,2.2644,2.2615,2.2613,2.2612,2.261,2.2645,2.2647,2.265,0,0,0,0,0,0,0,0,0,0,0,0,0,2.2549,2.2512,2.2606,2.2597,2.2597,2.2643,2.2644,2.2644,2.2615,2.2613,2.2611,2.261,2.2644,2.2647,2.265,2.2706,0,0,2.266,2.2661,0,0,0,0,0,0,0,0,2.2547,2.2553,2.2598,2.2598,2.2597,2.2622,2.2622,2.2665,2.2615,2.2608,2.2611,2.2609,2.2639,2.2642,2.2653,2.2708,2.271,2.266,2.2662,2.2663,2.2664,0,0,0,0,0,0,0,2.2544,2.2551,2.2621,2.2599,2.2598,2.2591,2.2594,2.263,2.2633,2.2608,2.2606,2.2611,2.2639,2.265,2.2654,2.271,2.266,2.2662,2.2664,2.2666,2.2814,2.2816,0,0,0,0,0,0,2.2543,2.2549,2.262,2.2622,2.2567,2.2594,2.2598,2.2616,2.2633,2.2634,2.2613,2.261,2.2646,2.265,2.2655,2.2723,2.2663,2.2666,2.2668,2.2812,2.2815,2.2817,0,0,0,0,0,0,2.2541,2.2549,2.2618,2.2585,2.2593,2.2598,2.2618,2.2618,2.263,2.2636,2.2637,2.2625,2.2645,2.2651,2.2694,2.2724,2.2667,2.267,2.281,2.2813,2.2816,2.2859,0,0,0,0,0,0,2.2538,2.2549,2.2571,2.2586,2.2595,2.2658,2.262,2.262,2.2636,2.2632,2.2647,2.2648,2.2644,2.269,2.2697,2.2727,2.2673,2.2807,2.2811,2.2815,2.2855,2.2863,2.287,0,0,0,0,0,2.2535,2.2581,2.2572,2.2581,2.2623,2.2659,2.2665,2.266,2.2638,2.266,2.2664,2.2648,2.2719,2.2695,2.2703,2.2734,2.2805,2.281,2.2814,2.2851,2.2862,2.287,0,0,0,0,0,0,2.2567,2.2582,2.2573,2.2625,2.2642,2.2654,2.2682,2.267,2.2692,2.2688,2.268,2.2683,2.273,2.2736,2.2708,2.279,2.2759,2.2765,2.2784,2.2794,2.2801,2.2799,2.2675,0,0,0,0,0,2.2581,2.261,2.2621,2.2666,2.2675,2.2677,2.2693,2.2688,2.2704,2.271,2.2718,2.2734,2.276,2.2777,2.2801,2.2856,2.2859,2.2881,2.2889,2.2895,2.2901,2.2931,2.2941,2.2832,2.2832,2.2832,0,0,2.2609,2.262,2.2639,2.2673,2.2685,2.2716,2.2683,2.2716,2.2738,2.2715,2.2757,2.2764,2.278,2.283,2.2852,2.2837,2.2932,2.2901,2.2906,2.2908,2.2937,2.2947,2.2956,2.2835,2.2835,2.2834,0,0,2.2675,2.2687,2.2726,2.2739,2.2758,2.276,2.2769,2.2784,2.2788,2.2831,2.2814,2.284,2.2885,2.2898,2.2911,2.2983,2.2969,2.2991,2.3031,2.3061,2.3069,2.3077,2.3103,2.3113,2.2997,2.2997,2.2997,0,2.2706,2.2752,2.2747,2.2782,2.2798,2.278,2.2819,2.2832,2.2858,2.2869,2.2851,2.2908,2.2918,2.2971,2.2989,2.3,2.301,2.299,2.3069,2.3076,2.3083,2.3108,2.3118,2.3,2.3,2.2999,2.2999,0,2.279,2.2823,2.2852,2.2879,2.2898,2.2935,2.2935,2.2955,2.2948,2.2951,2.2995,2.3007,2.3034,2.3046,2.3039,2.3098,2.3088,2.307,2.3038,2.3096,2.312,2.313,2.3004,2.3003,2.3002,2.3001,0,0,2.2877,2.2902,2.2913,2.2926,2.2946,2.2971,2.3007,2.3034,2.3052,2.307,2.3101,2.314,2.3124,2.3138,2.3133,2.3159,2.3217,2.3137,2.3138,2.3152,2.3283,2.3297,2.3308,2.3207,2.3209,2.321,2.3282,0,2.2944,2.3009,2.3006,2.3066,2.3096,2.308,2.3112,2.3127,2.3132,2.3157,2.3161,2.3189,2.3166,2.3174,2.3199,2.3204,2.3243,2.3199,2.3235,2.3236,2.3232,2.332,2.3335,2.3401,2.3291,2.3292,2.3293,0,2.3031,2.3055,2.3118,2.3136,2.3148,2.3177,2.3203,2.3227,2.3245,2.3246,2.3263,2.3254,2.3291,2.3259,2.3309,2.3279,2.3294,2.3299,2.3301,2.3304,2.3269,2.3326,2.3422,2.3433,2.3308,2.3307,2.3306,0,2.3089,2.3136,2.3181,2.3192,2.3213,2.3234,2.3243,2.3259,2.3277,2.3299,2.331,2.3336,2.335,2.337,2.3368,2.3345,2.3419,2.3387,2.3421,2.3421,2.3437,2.3436,2.3538,2.3447,2.3446,2.3446,2.3446,0,2.3165,2.3204,2.3207,2.3234,2.3278,2.3275,2.3318,2.3325,2.334,2.3368,2.3356,2.3382,2.3378,2.3405,2.3403,2.3445,2.3452,2.3454,2.3453,2.3455,2.3455,2.3464,2.346,2.3449,2.3448,2.3448,2.3447,0,2.3236,2.324,2.3287,2.3304,2.3309,2.3341,2.3355,2.3381,2.3385,2.3421,2.3429,2.3434,2.3465,2.3465,2.35,2.3499,2.3551,2.3545,2.3545,2.3544,2.3579,2.3576,2.369,2.3705,2.3604,2.3605,2.3606,0,2.3284,2.3315,2.3335,2.3354,2.3366,2.3395,2.3413,2.3411,2.343,2.3454,2.3477,2.3507,2.3531,2.358,2.3587,2.3614,2.3608,2.3646,2.3612,2.3614,2.3609,2.3608,2.3611,2.3653,2.3654,2.3655,2.3656,0,2.3369,2.337,2.3397,2.3425,2.3448,2.3469,2.3489,2.3505,2.3505,2.3527,2.356,2.3578,2.3615,2.3645,2.3671,2.368,2.3668,2.3667,2.3676,2.3679,2.3678,2.368,2.3564,2.3664,2.3663,2.3663,2.3662,2.3662,2.3431,2.3458,2.3477,2.3508,2.3523,2.3543,2.3568,2.3576,2.3603,2.3633,2.363,2.3666,2.3684,2.3718,2.373,2.3757,2.3744,2.3757,2.3761,2.3764,2.3768,2.3674,2.3762,2.3762,2.3761,2.3761,2.3761,0,2.3516,2.3528,2.3557,2.3586,2.361,2.3599,2.3621,2.3641,2.3674,2.3692,2.3716,2.3753,2.3783,2.3792,2.3821,2.3841,2.3836,2.3849,2.3847,2.385,2.3778,2.3768,2.3852,2.3852,2.3852,2.3852,2.3852,2.3852,2.3563,2.3608,2.3611,2.3664,2.3675,2.3711,2.3725,2.3743,2.3758,2.38,2.3825,2.3832,2.3847,2.3876,2.3903,2.3905,2.3916,2.393,2.393,2.3864,2.3854,2.3846,2.3836,2.3933,2.3933,2.3999,2.4,2.4]}]]